Flag for Fiji Weather past 2 weeks in Lautoka, Fiji

Now
88 °F

Scattered clouds.


Feels Like: 100 °F
Forecast: 78 / 89 °F
Wind: 10 mph from Northwest

Location: Nandi

Current Time: Jan 29, 2015 at 5:22:00 PM

Latest Report: Jan 29, 2015 at 5:00 PM


Visibility: N/A

Pressure: 29.62 "Hg

Humidity: 70%

Dew point: 77 °F

Location of LautokaLocation

Historic Weather in Lautoka — Graph

°F

Lautoka temperature yesterday

Maximum temperature yesterday: 88 °F (at 11:00 AM)
Minimum temperature yesterday: 75 °F (at 4:00 AM)
Average temperature yesterday: 82 °F

Past Weeks' High & Low Weather Summary

 TemperatureHumidityPressure
High90 °F (Jan 21, 10:00 AM)100% (Jan 15, 10:00 PM)29.89 "Hg (Jan 15, 10:00 PM)
Low72 °F (Jan 27, 5:00 AM)55% (Jan 25, 3:00 PM)29.53 "Hg (Jan 27, 3:00 PM)
Average81 °F83%29.75 "Hg
* Reported Jan 14 5:00 PM — Jan 29 4:00 PM, Lautoka, Weather by CustomWeather, © 2014

Note: Actual official high and low records may vary slightly from our data, if they occured in-between our weather recording intervals... More about our weather records

Advertising

Lautoka weather history for previous 24 hours

 ConditionsComfort  
Time TempWeatherWind HumidityBarometerVisibility
4:00 PM
Jan 29
88 °FScattered clouds.12 mph70%29.62 "HgN/A
3:00 PM88 °FWarm.10 mph70%29.62 "HgN/A
2:00 PM88 °FPassing clouds.13 mph62%29.62 "HgN/A
1:00 PM86 °FPassing clouds.15 mph75%29.65 "HgN/A
12:00 PM88 °FPassing clouds.14 mph70%29.65 "HgN/A
11:00 AM86 °FPassing clouds.13 mph70%29.68 "HgN/A
10:00 AM88 °FPassing clouds.5 mph66%29.68 "HgN/A
9:00 AM86 °FScattered clouds.No wind70%29.68 "HgN/A
8:00 AM82 °FPartly sunny.3 mph79%29.68 "HgN/A
7:00 AM79 °FPartly sunny.5 mph89%29.68 "HgN/A
6:00 AM77 °FScattered clouds.3 mph94%29.65 "HgN/A
5:00 AM77 °FPassing clouds.5 mph94%29.65 "HgN/A
4:00 AM77 °FPassing clouds.5 mph94%29.62 "HgN/A
3:00 AM77 °FPassing clouds.5 mph100%29.62 "HgN/A
2:00 AM79 °FPassing clouds.5 mph94%29.65 "HgN/A
1:00 AM79 °FPassing clouds.5 mph94%29.68 "HgN/A
12:00 AM79 °FPassing clouds.5 mph89%29.68 "HgN/A
11:00 PM
Jan 28
79 °FPassing clouds.3 mph89%29.68 "HgN/A
10:00 PM81 °FPassing clouds.2 mph79%29.68 "HgN/A
9:00 PM81 °FPassing clouds.6 mph84%29.68 "HgN/A
8:00 PM84 °FPassing clouds.7 mph74%29.68 "HgN/A
7:00 PM84 °FPassing clouds.6 mph79%29.65 "HgN/A
6:00 PM86 °FPassing clouds.8 mph70%29.62 "HgN/A
5:00 PM86 °FPassing clouds.10 mph70%29.59 "HgN/A
Weather by CustomWeather, © 2014

See weather overviewHow to use our weather pages